Theta_e
330 331 333 334 336 333 331 333 334 334 334 335 335 335 336 336 336 335 335 335 335 335 335 335 336 336 336 336 337 337 336 334 332 330 329 329 326 327 331 330 331 332 330 329 329 323 321 318 320 328 330 330 330 331 333 330 330 330 330 331 331 331 332
333 332 333 334 332 331 331 333 333 333 335 336 336 336 335 335 336 335 336 335 335 335 335 336 336 336 336 336 335 334 334 334 333 334 332 329 329 329 329 328 329 330 329 330 329 329 323 320 319 320 322 327 328 329 330 330 330 331 330 330 331 331 331
332 333 333 333 332 330 330 329 330 331 332 333 334 335 335 335 335 336 335 335 336 336 335 336 336 336 336 336 335 335 335 334 335 334 332 332 332 333 331 330 329 328 328 327 327 326 326 326 319 319 322 321 320 324 327 327 328 329 330 330 331 330 330
331 331 330 327 326 328 329 328 328 330 331 332 332 333 335 336 336 336 336 336 337 337 336 336 336 335 336 336 336 336 335 335 334 334 333 334 333 333 332 331 330 329 326 325 326 326 326 323 321 320 321 322 321 321 324 327 328 329 330 330 329 329 330
332 329 329 326 327 328 329 328 329 329 329 331 331 331 334 335 335 335 336 336 336 336 336 337 337 336 337 337 337 335 335 335 335 334 333 332 332 332 332 332 331 332 332 330 330 329 328 326 324 321 320 322 322 322 325 327 329 328 327 328 328 328 328
333 333 332 331 331 330 329 328 328 328 329 328 329 330 333 335 335 334 335 334 335 336 336 336 337 337 337 337 336 335 335 334 333 334 333 334 334 332 332 333 333 333 332 333 333 331 330 330 327 322 322 324 320 321 324 325 324 326 327 326 327 327 327
333 335 335 334 334 333 332 330 330 329 328 329 329 330 333 334 335 335 335 336 336 337 337 337 337 338 338 336 336 335 335 334 335 335 335 336 335 335 335 333 333 332 333 334 333 332 330 329 326 324 322 322 323 320 323 323 325 322 323 325 327 327 327
334 335 335 335 334 334 332 329 329 331 331 332 330 332 333 334 334 336 336 336 336 337 337 337 337 339 339 337 336 337 336 335 335 335 335 336 334 333 333 333 332 332 332 333 332 332 331 330 329 327 323 319 319 320 319 322 322 322 323 324 325 326 327
332 334 335 334 334 333 330 329 330 331 330 332 332 332 331 331 333 335 336 336 337 336 337 337 338 338 338 338 337 337 336 335 335 334 336 335 335 334 332 333 334 332 331 332 332 333 331 332 332 330 327 324 319 315 318 317 319 320 324 323 324 326 327
331 331 331 330 330 329 329 329 330 331 331 333 332 331 330 332 334 336 335 336 336 337 338 338 338 339 338 337 338 337 336 335 335 334 335 335 335 333 332 333 332 334 334 334 333 333 333 333 331 330 329 327 326 321 316 315 318 319 321 324 321 323 327
329 329 329 330 330 328 326 327 329 330 331 332 332 331 332 332 334 335 335 336 337 337 338 338 338 338 337 336 337 337 337 337 335 335 335 334 333 333 332 331 332 334 335 334 333 334 334 333 331 330 329 329 329 323 321 317 318 322 321 324 325 323 325
329 329 329 330 329 326 326 328 329 330 331 331 331 331 331 332 334 335 336 337 336 336 337 337 337 337 337 336 336 336 336 334 333 334 334 334 335 334 333 331 330 331 333 333 334 334 334 333 331 330 330 330 329 329 324 321 317 323 327 322 323 326 324
329 330 330 328 327 326 327 329 330 330 330 331 329 330 331 332 334 335 335 335 336 337 337 337 337 338 336 337 335 333 333 332 332 332 331 333 333 333 334 333 332 333 332 331 332 333 332 332 332 330 330 329 329 329 326 322 320 320 326 325 324 323 324
329 329 330 329 328 328 328 328 329 331 331 330 330 330 330 332 333 334 334 334 335 336 336 337 337 338 337 336 336 334 333 331 332 333 331 331 333 334 334 334 333 333 331 332 332 332 331 331 331 331 330 329 328 328 326 323 320 321 323 322 323 321 322
327 328 327 328 328 328 328 328 330 330 330 331 331 330 331 333 333 333 333 334 335 335 335 335 336 336 336 336 335 334 333 330 331 332 333 332 333 333 335 333 332 333 332 331 333 331 331 330 329 329 328 328 327 327 328 324 321 320 320 321 320 319 320
327 327 326 327 327 328 329 329 330 330 330 330 331 331 331 332 332 332 332 333 333 334 334 334 335 335 335 336 335 334 334 333 334 334 333 333 333 334 334 334 333 333 333 333 333 332 332 330 329 328 328 328 327 328 327 326 323 319 319 319 322 318 319
326 325 325 326 326 328 329 329 329 330 331 331 329 331 332 332 331 330 330 331 332 332 333 333 333 334 335 335 335 335 335 335 335 335 334 334 333 334 333 333 334 334 333 333 333 333 332 331 330 329 328 328 328 327 329 328 326 323 321 319 318 319 319
324 324 324 325 326 328 329 329 329 329 330 331 330 331 331 329 328 329 329 330 331 331 332 332 332 333 335 336 336 335 335 335 336 335 335 334 334 334 334 333 333 333 333 333 333 332 331 331 330 330 328 327 327 328 327 326 326 324 322 320 320 317 318
319 323 324 325 325 326 327 328 328 329 329 330 330 330 330 328 328 327 328 328 328 330 332 332 333 333 333 335 336 336 336 336 336 335 334 333 332 330 333 333 333 333 332 333 332 332 332 331 329 330 329 327 327 327 326 325 326 324 323 321 322 316 316
316 320 324 325 326 326 327 328 327 327 329 330 330 329 329 329 328 327 326 327 326 330 332 332 333 333 333 333 334 334 334 335 335 335 334 333 332 332 333 334 334 333 332 332 332 332 332 332 331 330 329 329 327 327 326 324 323 323 323 322 321 321 317
314 316 321 324 325 326 326 327 327 327 329 329 330 330 329 329 327 328 327 327 328 331 332 331 331 331 331 332 332 333 333 333 333 333 333 333 334 333 334 334 335 334 333 333 333 333 333 332 332 331 331 330 328 328 326 325 323 322 322 322 320 318 317
313 315 317 321 324 325 325 326 326 326 326 327 329 329 329 328 327 325 326 328 329 330 330 330 329 329 329 330 330 329 331 331 331 331 332 332 333 333 333 334 334 334 334 331 322 324 325 325 332 330 328 326 327 327 327 326 324 322 322 321 320 319 316
311 314 316 318 321 324 324 326 326 326 326 326 328 329 328 328 327 326 326 327 328 329 330 330 322 313 317 328 328 327 328 329 331 331 331 331 331 331 331 332 331 326 320 318 313 308 308 309 314 325 330 328 327 327 327 325 324 324 323 321 320 317 316
310 311 313 315 318 321 323 324 325 325 326 326 326 326 327 326 325 326 326 325 326 327 327 326 307 302 304 309 325 329 328 327 328 329 330 330 329 328 327 328 329 321 318 314 309 299 301 302 303 305 309 314 319 328 327 324 323 324 321 320 319 318 316
309 309 310 312 315 319 322 323 323 324 324 323 324 325 325 324 323 323 323 323 325 325 325 308 299 300 300 301 310 328 328 327 327 329 330 329 328 326 325 325 324 322 323 320 315 311 303 297 297 298 298 300 301 302 305 322 323 320 321 319 316 316 317
307 307 308 310 312 314 318 320 322 321 321 323 321 320 322 322 321 321 319 319 318 319 318 296 295 296 298 299 302 316 328 329 328 328 328 327 325 324 323 322 321 321 317 313 316 315 312 308 298 296 297 298 297 296 297 300 306 322 322 319 318 318 319
305 306 307 307 308 307 307 308 312 316 319 320 319 317 317 317 315 313 313 314 313 313 311 298 296 295 296 298 299 311 327 328 327 326 325 324 324 323 322 321 321 321 320 319 319 318 318 317 317 318 319 319 317 309 300 298 300 305 316 324 323 322 324
304 305 305 305 304 303 303 303 304 304 306 309 309 308 309 308 306 307 308 309 311 309 304 293 294 294 295 297 301 310 325 324 324 323 323 323 322 323 323 323 323 321 321 321 322 320 321 319 318 317 316 315 315 315 315 317 320 324 326 329 328 326 325
303 303 303 303 302 300 300 300 300 301 302 302 303 304 304 304 304 304 304 306 309 308 304 292 293 295 296 298 303 321 323 322 321 320 320 320 321 322 322 322 321 320 319 318 308 304 310 318 317 314 312 311 310 309 306 298 293 296 309 319 321 321 316
302 302 303 302 301 300 299 299 299 300 299 299 299 299 300 301 302 302 302 303 306 306 305 296 294 296 297 300 309 320 320 319 319 317 316 317 317 318 319 319 320 318 318 317 303 299 300 307 315 313 313 312 312 311 310 309 297 294 294 293 292 291 292
302 302 302 301 301 301 300 300 299 300 299 298 298 298 299 299 299 299 299 300 302 303 302 297 294 296 298 302 310 318 317 316 315 313 311 312 314 313 310 307 312 315 315 314 295 298 299 311 315 314 312 310 309 309 310 311 311 306 295 294 293 292 292
302 302 302 301 302 301 301 300 300 300 299 299 298 298 298 297 297 297 298 298 300 300 299 298 293 293 295 300 310 314 313 312 310 309 308 306 307 307 304 301 301 306 309 301 294 297 300 309 314 313 312 311 308 308 310 312 312 311 312 311 311 311 308
302 302 302 302 302 302 302 301 300 300 300 299 298 297 297 296 295 295 296 297 296 296 296 296 294 292 293 295 299 310 310 308 307 306 306 306 306 305 304 302 297 290 291 292 293 294 297 302 313 313 313 311 309 307 311 313 314 314 313 311 311 312 311
301 302 303 303 303 302 302 301 300 300 300 300 299 298 297 296 295 295 295 296 296 296 296 295 294 291 292 293 294 301 309 308 307 306 304 303 304 304 302 300 297 291 290 291 291 292 293 295 300 314 314 313 311 308 306 310 309 304 312 311 310 310 309
299 300 302 303 302 302 302 302 301 301 300 300 299 298 298 297 296 295 295 296 296 295 296 295 295 292 291 292 292 294 303 302 302 305 303 303 301 301 300 299 298 293 290 290 290 291 291 292 295 306 303 293 293 297 310 309 310 310 309 308 307 306 307
297 298 298 300 302 302 302 301 301 301 300 299 298 297 298 298 297 295 295 295 296 296 296 295 292 293 291 291 291 291 292 296 295 302 300 299 298 297 298 298 295 291 290 290 290 290 291 292 295 295 291 292 293 294 299 304 303 305 305 305 304 303 304
297 297 297 298 299 300 300 301 301 301 301 299 298 297 296 297 296 295 294 294 295 296 296 296 294 292 292 290 290 291 291 291 293 297 298 297 297 297 297 296 293 289 289 289 289 290 290 292 292 290 291 291 293 296 302 302 301 301 300 301 301 301 301
Wind_Speed
8 8 8 8 6 4 6 5 4 5 7 8 8 8 8 9 9 9 9 8 8 9 8 8 9 9 8 8 9 9 8 8 9 8 9 10 10 9 6 3 2 1 6 5 4 7 5 7 6 4 3 4 4 5 4 4 3 2 2 3 3 2 1
5 4 5 5 5 7 4 3 4 3 4 6 7 8 8 9 9 8 9 9 9 9 8 8 9 9 10 10 10 9 9 9 9 8 7 9 10 8 9 7 5 3 5 3 4 4 3 5 6 6 5 4 4 3 3 2 3 3 4 3 2 2 1
3 3 5 7 5 6 7 8 8 7 4 3 5 7 8 9 9 8 8 9 9 9 8 9 9 9 9 10 11 11 11 10 8 8 8 8 9 8 9 7 6 5 5 4 5 5 2 3 3 7 7 7 7 5 4 4 5 5 4 4 3 2 2
4 2 1 5 3 3 5 6 6 5 6 6 4 6 8 8 9 8 8 8 9 9 9 9 9 10 10 9 9 11 12 11 10 9 8 8 8 7 9 7 7 7 7 6 5 6 4 4 4 5 6 7 6 6 4 4 5 5 4 3 2 2 2
3 4 5 6 7 7 6 6 6 5 6 6 7 8 9 9 8 8 9 9 9 9 9 8 8 9 9 9 8 9 9 11 9 9 9 9 9 7 9 8 7 7 6 5 4 4 4 3 3 5 6 7 5 5 5 5 5 5 4 3 2 2 2
6 6 6 6 7 6 6 5 6 7 6 7 7 8 9 10 9 8 9 9 8 9 9 9 9 10 9 9 9 10 9 11 10 10 8 9 9 8 8 8 8 7 7 5 4 4 3 2 3 5 5 7 6 6 6 5 4 3 3 3 3 2 2
6 8 8 7 7 5 5 6 7 7 7 8 8 8 8 9 9 8 9 9 9 9 9 10 9 9 9 8 9 9 10 10 10 11 10 10 9 9 6 7 7 7 6 5 5 4 4 5 5 5 6 6 5 6 4 5 5 4 2 2 3 3 3
7 6 7 7 6 5 2 3 3 6 8 7 8 4 3 5 7 8 9 9 10 9 10 10 9 8 8 8 8 10 9 9 10 11 10 10 9 10 10 8 8 6 6 5 5 5 5 5 5 6 7 8 6 5 5 4 4 7 5 5 4 4 4
7 6 4 4 2 1 4 7 7 7 10 8 6 7 9 9 10 10 10 10 9 9 9 10 9 8 9 8 8 8 10 8 10 11 9 10 9 10 9 8 6 8 9 6 6 5 5 5 5 6 6 7 8 7 5 5 5 5 5 6 5 5 5
7 6 4 1 4 9 9 9 9 10 10 9 9 11 8 9 10 11 10 10 10 9 10 9 9 9 9 9 8 9 9 8 8 10 9 8 7 8 8 11 10 7 6 6 5 5 5 4 5 6 6 7 6 6 7 6 7 6 8 8 6 7 7
5 4 4 7 7 8 7 5 5 7 10 8 8 8 8 10 10 11 10 10 10 10 9 9 9 9 9 8 8 7 8 8 7 6 8 8 8 9 9 7 7 7 5 6 6 5 5 5 5 6 6 5 6 5 5 4 5 7 7 7 5 5 7
4 6 6 8 4 6 6 4 8 11 9 4 2 5 8 10 10 10 9 8 9 10 10 9 9 8 9 7 8 7 8 7 6 8 8 7 8 8 9 10 8 8 4 4 4 5 5 6 6 6 6 5 5 3 3 1 3 6 5 7 7 3 6
6 7 7 7 7 8 8 10 11 11 8 7 9 9 8 9 8 9 8 8 8 8 8 9 9 8 7 7 8 8 7 7 9 9 8 8 6 8 9 9 10 7 5 6 6 6 6 6 6 6 6 6 5 4 4 2 4 8 6 4 5 5 5
7 7 6 7 9 10 10 10 11 9 8 10 8 9 9 10 9 9 9 9 9 8 8 8 8 8 8 8 8 7 8 9 10 9 9 9 8 7 8 8 8 8 8 6 6 6 6 7 7 6 5 6 6 6 5 3 5 7 4 1 1 4 4
7 7 7 8 8 9 9 9 9 8 8 9 8 9 10 8 8 9 9 10 9 9 9 8 8 9 9 8 8 8 8 10 10 9 8 9 8 6 7 7 8 8 9 9 8 8 7 7 8 7 7 7 6 7 6 5 5 7 7 4 4 3 4
7 7 8 8 9 9 9 8 8 9 9 9 9 8 9 8 8 8 8 8 8 8 9 8 7 8 8 9 9 10 10 10 9 8 8 8 8 7 7 7 7 7 6 8 7 7 7 8 7 8 8 7 7 7 7 6 5 7 8 6 5 5 5
8 8 8 8 9 10 9 8 9 10 10 7 8 7 7 5 1 3 7 8 8 8 8 8 8 9 10 10 9 9 9 9 9 9 8 8 8 7 8 8 7 8 8 8 8 7 7 7 7 7 8 8 7 7 6 5 5 4 5 6 5 5 5
10 9 9 9 11 11 10 9 9 10 9 9 8 8 7 6 7 6 5 6 7 8 8 9 9 9 8 8 9 8 8 8 8 8 8 7 6 7 8 8 8 9 9 9 8 8 7 9 8 7 8 8 8 7 5 5 6 4 4 5 5 2 2
11 11 10 10 10 10 10 10 10 9 9 9 9 8 7 7 6 7 7 4 6 7 8 8 9 9 8 8 7 8 8 8 8 8 8 7 7 8 7 8 9 9 10 9 9 8 8 10 9 9 10 8 8 7 7 6 6 6 5 5 4 4 3
11 10 10 10 10 10 10 10 10 9 9 9 9 9 8 8 8 8 9 11 11 10 9 8 8 8 8 8 8 8 7 7 7 6 7 8 8 8 8 8 8 9 10 9 9 9 8 9 8 10 10 8 8 8 7 7 7 7 6 5 4 3 4
11 11 10 10 11 11 10 9 9 9 9 10 10 10 9 9 11 9 9 9 11 9 8 7 7 7 7 7 7 8 7 7 7 6 6 7 8 8 9 8 8 8 9 9 9 9 9 9 8 9 7 5 6 7 7 7 7 7 6 6 5 5 4
10 11 11 11 10 10 10 9 8 7 8 10 9 10 10 8 10 11 9 9 10 8 7 7 6 7 7 7 6 6 7 8 7 7 7 7 6 7 7 6 6 7 8 8 8 7 9 7 7 8 5 5 6 7 7 7 7 6 6 6 5 4 4
12 12 12 11 11 10 10 9 8 8 8 9 10 10 10 10 10 10 10 10 9 7 6 5 7 11 9 7 7 6 5 6 8 7 7 7 6 6 6 5 4 4 3 4 5 6 6 5 4 2 8 9 7 7 7 7 6 6 6 6 6 5 6
12 12 13 12 11 11 10 9 9 9 8 8 8 9 10 8 8 8 9 9 9 7 5 5 11 12 12 10 8 6 7 6 6 7 7 7 7 7 5 5 5 4 5 6 7 8 2 4 7 4 6 9 7 7 8 7 6 6 6 5 5 5 5
13 13 13 13 13 11 9 8 9 8 6 8 6 6 5 4 5 6 7 5 7 6 6 6 11 11 11 11 8 7 7 7 7 7 7 7 6 6 6 5 4 3 2 5 7 8 6 5 5 7 8 6 4 2 4 2 7 6 6 6 6 6 5
13 13 13 12 12 11 10 9 8 5 7 8 4 7 8 7 6 4 4 3 2 4 5 6 9 8 8 10 11 8 7 7 8 7 6 6 6 6 6 6 5 4 4 8 7 7 7 7 7 11 11 11 9 7 6 5 4 3 7 6 7 6 5
13 13 12 11 11 11 11 10 9 7 3 3 2 1 3 3 4 1 2 4 3 3 4 4 8 8 8 9 10 7 6 6 5 6 6 6 6 6 6 6 6 6 6 6 6 8 10 10 10 9 8 8 8 9 10 9 8 5 2 6 8 7 6
13 13 12 11 10 10 10 10 10 9 8 7 6 5 5 5 5 5 4 2 3 4 3 3 7 9 9 10 10 6 6 6 6 6 5 5 5 6 7 6 7 8 7 7 6 9 11 9 8 7 8 8 8 7 7 6 5 3 3 4 5 7 6
15 14 13 13 12 12 11 10 9 8 9 9 8 7 6 6 6 6 6 7 5 4 6 6 8 10 11 11 12 6 7 7 6 6 6 6 5 6 6 7 8 9 9 7 4 9 12 11 11 10 9 10 8 7 9 7 7 9 9 7 6 6 6
15 15 14 14 13 13 12 12 11 9 10 10 10 10 9 7 6 7 9 8 6 6 7 9 6 11 11 13 10 7 7 7 6 7 6 6 5 5 5 6 6 8 8 8 6 7 11 14 9 9 8 8 7 8 7 6 10 13 14 15 16 15 13
14 14 14 14 13 12 11 10 10 9 10 9 9 8 6 7 9 10 10 10 8 6 7 11 13 7 5 4 7 9 7 7 7 7 6 5 5 6 7 8 5 7 8 7 8 8 9 13 9 10 10 10 8 7 7 6 6 8 13 14 14 13 12
13 14 14 13 12 12 12 12 11 10 10 10 8 7 5 7 11 12 9 8 14 11 10 12 16 13 11 5 3 6 7 8 8 7 6 6 5 6 6 8 10 7 8 9 10 8 5 8 9 9 9 9 9 8 6 7 8 9 8 8 8 8 8
13 13 13 13 12 12 10 11 12 12 11 10 9 8 6 8 14 12 10 9 10 10 11 12 15 17 15 13 9 3 5 7 8 8 6 6 9 7 7 6 8 10 9 12 12 10 7 7 8 6 6 7 8 8 6 6 6 7 8 7 7 7 8
11 12 12 11 11 11 11 11 12 12 12 11 10 8 9 12 14 12 8 10 12 11 11 10 14 18 18 17 15 9 4 5 5 7 7 6 5 6 7 6 5 8 11 10 11 11 10 10 7 5 4 5 5 8 8 7 7 6 9 8 8 7 7
10 9 10 11 11 11 11 11 10 8 9 9 9 11 12 11 10 8 8 12 12 11 14 19 10 16 18 18 17 17 9 9 9 5 7 6 7 6 6 5 5 8 14 14 13 15 13 11 11 7 7 11 12 10 7 7 6 6 7 7 6 6 6
9 8 10 10 11 12 12 13 13 12 10 10 11 11 11 8 8 9 12 11 10 11 12 13 18 13 17 17 16 16 15 11 13 9 6 7 8 7 6 6 7 11 13 13 12 11 11 12 11 8 11 13 12 12 8 5 6 6 6 6 6 5 4
9 8 9 10 10 11 11 10 9 9 9 10 10 11 9 8 10 12 10 9 9 10 10 10 14 17 14 17 14 16 16 15 13 8 7 6 5 6 6 6 8 13 14 13 13 12 11 10 9 10 10 11 12 9 7 6 5 6 6 6 5 4 4
Wind_Direction
231 236 214 198 165 153 210 218 201 195 195 197 201 209 210 203 199 196 198 199 203 207 208 212 218 212 209 203 193 196 187 180 185 188 188 189 197 201 197 192 195 189 197 195 242 200 204 177 169 153 167 155 146 169 167 164 172 176 160 174 180 179 202
233 246 241 179 149 147 177 175 221 227 215 205 203 207 212 213 206 201 197 197 200 202 204 215 219 213 208 201 193 193 191 185 194 194 187 191 199 202 190 200 202 173 175 218 200 222 212 171 168 173 173 162 177 152 138 134 154 162 162 159 150 149 148
232 230 232 219 156 138 189 188 187 183 190 224 231 223 217 213 209 205 201 200 203 202 205 213 214 209 202 203 197 198 198 194 193 193 195 193 202 204 200 186 186 173 185 198 203 204 205 212 181 187 176 171 178 159 167 168 164 154 160 145 165 169 140
241 192 192 43 43 195 197 199 211 200 172 170 185 232 228 216 203 201 205 205 206 206 208 211 211 210 206 205 201 199 200 197 194 194 197 207 208 204 201 194 193 188 190 201 197 202 209 183 172 167 177 187 178 156 158 157 165 154 152 154 172 153 146
211 195 189 170 201 206 197 207 221 217 204 185 184 210 224 218 206 202 205 208 208 208 210 211 209 209 206 204 199 197 199 200 197 195 201 205 207 210 209 205 207 206 206 222 209 214 212 203 193 162 173 177 177 172 147 157 158 140 153 154 132 137 161
186 211 223 204 205 199 170 198 228 241 225 206 202 206 215 213 208 205 205 208 209 210 211 211 209 206 202 202 200 200 199 198 202 200 200 204 202 204 205 208 211 211 219 226 246 228 216 187 195 166 162 176 179 165 158 166 138 114 135 156 171 174 172
206 193 218 230 221 213 191 192 214 236 243 230 212 215 217 214 213 212 208 210 211 210 210 209 208 202 199 200 200 203 203 203 203 204 207 208 206 208 212 201 211 216 221 216 222 221 200 190 187 181 159 175 186 170 148 189 161 177 146 166 180 177 177
270 248 232 229 225 218 148 281 261 253 251 238 226 220 241 242 237 222 215 212 211 212 208 205 205 200 198 204 203 205 205 202 203 204 210 207 206 197 199 208 204 202 238 212 212 224 211 202 188 172 170 168 172 166 166 186 186 220 173 174 188 191 181
271 270 263 256 244 109 143 198 228 222 236 228 217 200 197 199 217 223 215 214 213 210 207 204 201 201 200 201 202 199 201 206 204 208 212 210 211 204 208 225 224 205 211 208 214 215 221 204 189 172 182 179 169 172 177 185 200 206 184 183 184 199 181
284 270 276 319 199 209 204 200 205 223 233 224 207 212 205 206 214 218 217 213 208 206 205 203 200 200 200 203 202 198 201 199 196 207 213 213 206 207 218 209 218 214 201 200 211 211 206 198 197 188 194 194 188 165 169 191 197 203 187 203 190 183 194
271 262 209 207 212 208 205 203 218 228 235 225 213 213 208 209 212 212 210 206 204 205 205 202 201 199 197 201 200 197 197 189 191 204 214 208 201 214 213 204 223 227 198 200 205 200 196 198 197 194 201 205 205 197 166 184 183 199 181 193 215 170 186
249 227 220 246 228 223 237 215 225 235 237 230 217 232 226 217 210 204 202 194 197 203 206 203 199 195 193 194 199 201 197 187 196 211 206 200 202 204 197 202 203 229 173 207 217 194 194 196 199 196 200 206 197 222 186 195 181 178 199 180 196 192 172
251 249 241 246 246 232 221 220 226 232 221 198 205 206 208 209 195 191 190 190 186 189 191 196 199 194 188 198 193 198 197 187 204 204 201 209 200 197 200 200 194 189 184 196 205 198 195 198 199 200 195 196 192 201 211 220 220 163 185 182 165 172 167
271 254 244 233 233 242 238 226 225 225 212 217 206 204 203 203 194 193 188 187 186 183 186 186 193 199 197 194 189 186 180 202 205 197 192 199 202 191 195 197 190 169 187 197 205 196 197 192 190 199 195 194 193 190 204 207 180 147 148 142 165 169 161
290 264 243 241 242 246 245 245 237 224 217 222 215 215 213 204 197 189 190 188 184 181 181 185 183 197 196 190 187 198 190 197 206 189 185 187 183 182 185 195 184 171 185 198 198 200 194 189 191 193 190 197 195 191 202 204 173 169 166 162 188 167 162
313 290 274 267 262 254 246 242 240 229 223 220 213 216 214 208 198 189 189 189 179 176 179 179 182 189 192 191 188 193 195 193 191 185 188 188 185 178 181 186 180 174 177 191 191 200 192 195 192 193 190 195 200 196 197 206 182 178 176 170 177 177 178
316 304 286 283 270 262 256 249 241 236 229 206 201 206 217 208 231 220 211 189 181 176 178 178 184 193 194 192 190 184 184 188 192 190 189 188 186 181 184 185 182 180 182 189 191 193 194 192 192 193 192 191 201 196 196 197 211 195 182 168 179 198 168
324 313 301 289 286 287 278 264 255 248 238 225 211 194 183 157 173 188 231 235 192 182 183 183 186 191 190 190 190 185 186 192 195 194 186 181 175 186 187 189 183 185 185 193 189 196 191 193 193 191 194 190 198 192 185 198 205 199 188 191 150 170 144
329 320 308 300 291 288 281 266 255 250 246 235 222 212 186 181 180 175 174 233 252 205 189 188 191 189 188 186 189 188 190 193 194 191 185 183 180 191 205 195 183 188 189 195 193 193 192 193 194 197 197 195 193 181 185 189 204 204 207 199 171 153 189
327 319 310 303 296 286 278 270 263 254 245 237 225 214 195 183 181 179 181 182 213 218 194 189 189 183 183 183 186 186 188 192 190 185 183 183 190 193 209 199 188 190 194 196 193 190 187 193 196 201 193 189 191 178 181 195 201 199 207 201 184 181 163
325 321 315 305 297 291 287 282 271 264 255 245 236 226 208 192 195 190 198 195 204 207 188 179 180 182 183 181 181 186 186 185 184 179 177 181 182 189 198 197 193 191 196 197 197 192 190 191 196 202 185 166 182 180 185 189 193 200 202 203 204 185 182
326 324 321 315 303 294 293 292 283 265 254 251 244 237 225 198 191 197 200 203 201 193 187 179 177 177 179 180 178 180 185 183 177 175 177 179 178 185 190 194 194 198 200 200 194 191 194 194 192 193 118 221 210 189 191 189 190 200 198 201 195 182 176
334 331 332 328 317 305 297 294 286 269 253 246 245 239 228 214 200 196 197 196 190 178 183 179 177 180 174 173 179 177 169 175 177 174 171 168 169 176 178 174 179 179 183 181 168 173 176 210 249 278 154 200 203 197 194 189 193 196 197 197 199 182 189
342 341 338 332 327 314 302 293 285 276 262 243 237 234 223 207 201 200 202 190 178 176 172 178 171 176 179 178 178 174 170 168 170 171 171 170 169 167 162 157 162 134 129 101 63 52 72 184 205 217 166 193 207 200 185 186 193 187 190 192 171 180 186
351 349 345 340 333 320 306 296 290 286 263 239 218 218 200 190 210 208 205 188 174 165 167 152 166 175 176 179 189 179 173 171 174 174 173 170 163 165 160 150 143 140 148 131 133 121 80 61 94 109 117 120 124 51 359 222 174 169 175 168 166 174 172
352 353 353 350 350 352 344 326 297 239 239 248 202 195 202 191 188 174 145 162 189 141 136 141 152 158 166 175 185 189 182 178 175 169 161 158 155 158 155 148 141 137 114 122 133 120 118 107 94 105 105 93 70 81 96 68 17 152 160 161 155 153 160
359 356 355 358 3 9 8 7 4 345 288 240 171 63 45 55 35 132 170 140 147 134 109 129 141 146 158 165 164 181 166 157 147 142 146 144 147 151 153 152 146 136 136 140 130 131 124 126 130 126 118 111 106 94 81 75 83 71 139 149 148 144 139
3 3 1 3 12 18 13 9 12 9 13 26 42 51 44 56 56 33 8 69 116 78 34 12 134 135 142 150 137 134 126 124 127 123 120 127 135 143 143 142 137 129 130 134 134 134 127 123 108 100 91 75 67 60 52 46 41 62 90 92 114 116 113
5 6 8 12 17 20 19 16 19 12 27 30 34 47 45 46 47 45 36 33 12 34 38 24 122 128 140 142 126 127 124 121 123 119 114 117 124 128 133 134 136 132 133 126 114 128 126 121 111 104 96 92 73 55 55 44 26 30 37 45 56 69 65
9 11 11 15 19 23 23 24 24 25 45 42 36 36 43 47 38 45 47 46 36 31 38 20 81 126 146 144 130 121 122 121 118 114 108 111 111 109 114 132 131 137 129 128 129 136 131 116 105 104 103 103 107 108 94 75 53 57 67 71 75 78 82
15 16 18 18 22 27 30 31 32 33 49 56 52 27 2 46 47 41 41 44 38 39 37 27 32 50 137 163 140 131 130 124 115 111 104 92 104 96 76 57 98 121 120 120 133 143 139 120 125 127 123 115 106 104 104 104 93 75 79 81 83 87 90
22 22 23 25 27 32 37 40 37 38 41 46 46 52 17 51 61 48 30 37 43 44 41 31 29 30 17 19 122 121 124 123 120 122 122 106 90 101 81 51 47 74 104 115 120 125 128 116 122 125 127 125 125 128 128 134 123 120 118 111 107 104 96
28 28 29 30 31 33 35 42 44 44 47 50 47 44 33 49 67 53 34 33 41 36 45 38 29 33 29 18 11 88 112 121 127 126 129 134 127 104 90 88 61 55 97 114 114 106 92 97 110 126 143 131 130 125 138 128 119 123 120 117 112 105 102
21 26 32 35 36 38 36 41 49 48 48 50 52 44 51 48 54 54 40 47 51 38 40 46 38 35 39 30 25 27 44 48 90 113 112 88 67 86 89 73 61 61 70 73 84 88 97 102 114 127 113 119 107 118 127 121 108 114 115 110 110 112 110
17 18 17 32 41 42 42 47 50 53 52 45 49 49 47 55 54 54 49 50 50 44 40 37 40 41 43 42 36 39 44 36 19 76 94 88 81 73 58 67 72 63 71 63 62 70 64 61 69 71 69 91 95 100 106 103 112 112 116 117 112 104 106
17 16 16 14 36 48 46 46 47 47 47 50 41 45 44 35 56 54 49 44 39 41 41 40 36 40 43 46 48 50 48 50 43 43 44 80 85 86 79 80 76 68 70 74 74 74 81 83 77 84 97 92 92 92 93 95 97 102 103 100 95 90 84
21 17 20 22 27 32 36 34 37 37 44 49 52 47 37 36 44 53 50 43 36 36 37 40 35 36 42 41 47 59 63 55 56 70 71 63 54 77 80 75 84 84 80 75 66 58 58 68 89 92 95 103 103 100 99 100 94 98 99 95 90 86 79